DLH2AK EDDF-LIMC

Flight info

Callsign DLH2AK
Flight time 0h 53m
Altitude 33000
Route ANEKI3F ANEKI Y163 NATOR DCT TRA DCT RIPUS DCT GERSA DCT SOSON DCT DEGAD Z424 RIXUV
Aircraft A320/M-SDE3FGHIRWY/LB1

Departure

Time 2026-04-19 05:07
Airport Frankfurt Main Airport (EDDF)

Arrival

Time 2026-04-19 06:01
Airport Milan Malpensa International Airport (LIMC)
Time Latitude Longitude Altitude Speed Heading
2026-04-19 04:32 50.04403 8.56222 362 ft 0 kts 160°
2026-04-19 04:58 50.04424 8.56210 359 ft 4 kts 161°
2026-04-19 04:59 50.04450 8.56201 359 ft 4 kts 184°
2026-04-19 04:59 50.04473 8.56213 365 ft 4 kts 232°
2026-04-19 04:59 50.04479 8.56230 365 ft 1 kts 249°
2026-04-19 04:59 50.04480 8.56232 365 ft 0 kts 249°
2026-04-19 05:01 50.04480 8.56231 356 ft 0 kts 249°
2026-04-19 05:02 50.04468 8.56184 362 ft 9 kts 248°
2026-04-19 05:02 50.04449 8.56106 363 ft 6 kts 250°
2026-04-19 05:02 50.04431 8.56046 359 ft 8 kts 229°
2026-04-19 05:02 50.04370 8.56042 361 ft 11 kts 163°
2026-04-19 05:03 50.04296 8.56115 357 ft 14 kts 116°
2026-04-19 05:03 50.04236 8.56242 360 ft 18 kts 159°
2026-04-19 05:03 50.04156 8.56312 360 ft 12 kts 117°
2026-04-19 05:03 50.04167 8.56445 356 ft 15 kts 69°
2026-04-19 05:04 50.04208 8.56614 358 ft 19 kts 70°
2026-04-19 05:04 50.04256 8.56828 363 ft 23 kts 70°
2026-04-19 05:04 50.04317 8.57078 368 ft 25 kts 69°
2026-04-19 05:04 50.04380 8.57339 361 ft 26 kts 70°
2026-04-19 05:05 50.04445 8.57610 369 ft 26 kts 69°
2026-04-19 05:05 50.04512 8.57882 364 ft 25 kts 70°
2026-04-19 05:05 50.04534 8.58034 364 ft 7 kts 109°
2026-04-19 05:05 50.04510 8.58074 365 ft 5 kts 149°
2026-04-19 05:06 50.04446 8.58110 369 ft 16 kts 160°
2026-04-19 05:06 50.04361 8.58061 366 ft 7 kts 249°
2026-04-19 05:06 50.04361 8.58059 366 ft 0 kts 249°
2026-04-19 05:06 50.04357 8.58045 366 ft 14 kts 249°
2026-04-19 05:07 50.04228 8.57507 364 ft 87 kts 249°
2026-04-19 05:07 50.03948 8.56337 359 ft 143 kts 250°
2026-04-19 05:07 50.03570 8.54736 683 ft 158 kts 256°
2026-04-19 05:07 50.03201 8.53115 1405 ft 159 kts 256°
2026-04-19 05:08 50.02782 8.51422 1871 ft 182 kts 249°
2026-04-19 05:08 50.00260 8.49255 3067 ft 227 kts 200°
2026-04-19 05:08 49.98679 8.49251 3955 ft 235 kts 166°
2026-04-19 05:09 49.97317 8.50662 4849 ft 240 kts 135°
2026-04-19 05:09 49.96174 8.52510 5621 ft 240 kts 147°
2026-04-19 05:09 49.94652 8.53597 6061 ft 250 kts 177°
2026-04-19 05:09 49.92855 8.53568 6514 ft 265 kts 186°
2026-04-19 05:10 49.90990 8.53538 7308 ft 270 kts 184°
2026-04-19 05:10 49.89109 8.53549 8195 ft 272 kts 184°
2026-04-19 05:10 49.87204 8.53594 9038 ft 275 kts 184°
2026-04-19 05:10 49.85273 8.53675 9865 ft 280 kts 184°
2026-04-19 05:11 49.83298 8.53784 10470 ft 293 kts 183°
2026-04-19 05:11 49.81193 8.53911 10888 ft 307 kts 182°
2026-04-19 05:11 49.79114 8.54064 12158 ft 289 kts 182°
2026-04-19 05:11 49.77189 8.54033 13533 ft 267 kts 190°
2026-04-19 05:12 49.75355 8.53806 14434 ft 263 kts 191°
2026-04-19 05:12 49.73531 8.53565 15128 ft 264 kts 191°
2026-04-19 05:12 49.71696 8.53314 15787 ft 266 kts 191°
2026-04-19 05:12 49.69846 8.53057 16228 ft 278 kts 191°
2026-04-19 05:13 49.67842 8.52770 16375 ft 300 kts 190°
2026-04-19 05:13 49.65683 8.52466 16512 ft 322 kts 190°
2026-04-19 05:13 49.63387 8.52149 16632 ft 341 kts 189°
2026-04-19 05:13 49.60954 8.51821 16834 ft 358 kts 189°
2026-04-19 05:14 49.59293 8.51604 17151 ft 363 kts 189°
2026-04-19 05:14 49.56766 8.51285 17739 ft 367 kts 189°
2026-04-19 05:14 49.54202 8.50965 18357 ft 370 kts 189°
2026-04-19 05:14 49.51623 8.50640 18901 ft 373 kts 189°
2026-04-19 05:15 49.49019 8.50305 19455 ft 376 kts 189°
2026-04-19 05:15 49.46400 8.49961 20019 ft 379 kts 189°
2026-04-19 05:15 49.43769 8.49614 20586 ft 381 kts 189°
2026-04-19 05:15 49.41116 8.49264 21124 ft 384 kts 190°
2026-04-19 05:16 49.38446 8.48912 21671 ft 386 kts 190°
2026-04-19 05:16 49.35757 8.48559 22204 ft 389 kts 190°
2026-04-19 05:16 49.33049 8.48206 22722 ft 391 kts 190°
2026-04-19 05:16 49.30325 8.47853 23227 ft 394 kts 190°
2026-04-19 05:17 49.27585 8.47500 23715 ft 397 kts 190°
2026-04-19 05:17 49.24827 8.47144 24127 ft 399 kts 190°
2026-04-19 05:17 49.22056 8.46784 24544 ft 400 kts 190°
2026-04-19 05:17 49.19311 8.46429 24909 ft 402 kts 190°
2026-04-19 05:18 49.16521 8.46070 25319 ft 403 kts 190°
2026-04-19 05:18 49.13718 8.45710 25722 ft 405 kts 191°
2026-04-19 05:18 49.10905 8.45345 26120 ft 406 kts 191°
2026-04-19 05:18 49.08081 8.44978 26509 ft 408 kts 191°
2026-04-19 05:19 49.05283 8.44384 26883 ft 404 kts 198°
2026-04-19 05:19 49.02541 8.43426 27245 ft 405 kts 198°
2026-04-19 05:19 48.99794 8.42465 27605 ft 406 kts 198°
2026-04-19 05:19 48.97034 8.41498 27914 ft 408 kts 198°
2026-04-19 05:20 48.94252 8.40525 28238 ft 410 kts 198°
2026-04-19 05:20 48.91464 8.39554 28567 ft 412 kts 198°
2026-04-19 05:20 48.88664 8.38578 28899 ft 413 kts 198°
2026-04-19 05:20 48.85856 8.37603 29208 ft 415 kts 198°
2026-04-19 05:21 48.83035 8.36630 29506 ft 416 kts 198°
2026-04-19 05:21 48.80200 8.35651 29808 ft 418 kts 198°
2026-04-19 05:21 48.77364 8.34668 30056 ft 419 kts 198°
2026-04-19 05:21 48.74517 8.33649 30221 ft 422 kts 199°
2026-04-19 05:22 48.71645 8.32597 30395 ft 424 kts 199°
2026-04-19 05:22 48.68774 8.31535 30664 ft 424 kts 199°
2026-04-19 05:22 48.65907 8.30478 30942 ft 424 kts 199°
2026-04-19 05:22 48.63073 8.29437 31214 ft 424 kts 199°
2026-04-19 05:23 48.60193 8.28388 31482 ft 424 kts 199°
2026-04-19 05:23 48.57322 8.27347 31765 ft 425 kts 199°
2026-04-19 05:23 48.54449 8.26305 32054 ft 425 kts 199°
2026-04-19 05:23 48.51566 8.25297 32333 ft 427 kts 195°
2026-04-19 05:24 48.48589 8.24853 32606 ft 434 kts 186°
2026-04-19 05:24 48.45548 8.25196 32870 ft 442 kts 176°
2026-04-19 05:24 48.42508 8.25952 33058 ft 443 kts 176°
2026-04-19 05:25 48.36444 8.27443 33093 ft 440 kts 177°
2026-04-19 05:25 48.30399 8.28903 33099 ft 440 kts 177°
2026-04-19 05:26 48.24341 8.30355 33102 ft 441 kts 176°
2026-04-19 05:26 48.18275 8.31807 33104 ft 441 kts 176°
2026-04-19 05:27 48.12219 8.33273 33090 ft 441 kts 176°
2026-04-19 05:27 48.06159 8.34753 33101 ft 441 kts 176°
2026-04-19 05:28 48.00131 8.36214 33099 ft 442 kts 176°
2026-04-19 05:28 47.94064 8.37681 33101 ft 442 kts 176°
2026-04-19 05:29 47.87996 8.39143 33081 ft 442 kts 176°
2026-04-19 05:29 47.81914 8.40608 33101 ft 443 kts 176°
2026-04-19 05:30 47.75835 8.42057 33099 ft 443 kts 176°
2026-04-19 05:30 47.69749 8.43503 33082 ft 442 kts 176°
2026-04-19 05:31 47.63660 8.44678 33104 ft 440 kts 180°
2026-04-19 05:31 47.57569 8.45477 33113 ft 439 kts 181°
2026-04-19 05:32 47.51482 8.46251 33120 ft 439 kts 180°
2026-04-19 05:32 47.45394 8.47130 33103 ft 440 kts 179°
2026-04-19 05:33 47.39287 8.48063 33106 ft 441 kts 180°
2026-04-19 05:33 47.33182 8.48971 33111 ft 441 kts 180°
2026-04-19 05:34 47.27064 8.49857 33097 ft 442 kts 180°
2026-04-19 05:34 47.20972 8.50738 33103 ft 443 kts 180°
2026-04-19 05:35 47.14822 8.51636 33111 ft 444 kts 180°
2026-04-19 05:35 47.08660 8.52531 33118 ft 445 kts 180°
2026-04-19 05:35 47.05572 8.52980 32973 ft 447 kts 180°
2026-04-19 05:36 47.02468 8.53430 32702 ft 449 kts 180°
2026-04-19 05:36 46.99358 8.53880 32438 ft 450 kts 180°
2026-04-19 05:36 46.96239 8.54330 32171 ft 450 kts 180°
2026-04-19 05:36 46.93164 8.54771 31917 ft 450 kts 180°
2026-04-19 05:37 46.90041 8.55219 31671 ft 451 kts 179°
2026-04-19 05:37 46.86921 8.55665 31401 ft 451 kts 179°
2026-04-19 05:37 46.83788 8.56111 31130 ft 452 kts 180°
2026-04-19 05:37 46.80650 8.56555 30876 ft 454 kts 180°
2026-04-19 05:38 46.77500 8.57001 30623 ft 454 kts 179°
2026-04-19 05:38 46.74364 8.57450 30369 ft 451 kts 179°
2026-04-19 05:38 46.71249 8.57902 30113 ft 449 kts 179°
2026-04-19 05:38 46.68145 8.58352 29830 ft 447 kts 179°
2026-04-19 05:39 46.65051 8.58795 29542 ft 445 kts 179°
2026-04-19 05:39 46.61974 8.59229 29237 ft 445 kts 179°
2026-04-19 05:39 46.58897 8.59662 28948 ft 444 kts 179°
2026-04-19 05:39 46.55826 8.60095 28670 ft 442 kts 179°
2026-04-19 05:40 46.52768 8.60529 28393 ft 440 kts 179°
2026-04-19 05:40 46.49723 8.60959 28121 ft 438 kts 179°
2026-04-19 05:40 46.46705 8.61070 27806 ft 428 kts 188°
2026-04-19 05:40 46.43801 8.60475 27216 ft 417 kts 198°
2026-04-19 05:41 46.41072 8.59190 26628 ft 408 kts 207°
2026-04-19 05:41 46.38578 8.57330 26051 ft 398 kts 216°
2026-04-19 05:41 46.36248 8.55209 25505 ft 394 kts 216°
2026-04-19 05:41 46.33927 8.53121 24954 ft 392 kts 216°
2026-04-19 05:42 46.31615 8.51060 24415 ft 389 kts 215°
2026-04-19 05:42 46.29209 8.49271 23879 ft 391 kts 205°
2026-04-19 05:42 46.26590 8.48168 23275 ft 394 kts 194°
2026-04-19 05:42 46.23892 8.47821 22765 ft 394 kts 183°
2026-04-19 05:43 46.21167 8.48118 22262 ft 392 kts 178°
2026-04-19 05:43 46.18469 8.48511 21785 ft 387 kts 178°
2026-04-19 05:43 46.15796 8.48892 21314 ft 384 kts 178°
2026-04-19 05:43 46.13144 8.49268 20859 ft 381 kts 178°
2026-04-19 05:44 46.10534 8.49918 20407 ft 381 kts 168°
2026-04-19 05:44 46.08025 8.51143 19944 ft 379 kts 162°
2026-04-19 05:44 46.05563 8.52476 19479 ft 377 kts 162°
2026-04-19 05:44 46.03113 8.53800 19010 ft 375 kts 163°
2026-04-19 05:45 46.00681 8.55111 18543 ft 373 kts 163°
2026-04-19 05:45 45.98253 8.56419 18111 ft 370 kts 163°
2026-04-19 05:45 45.95911 8.57681 17977 ft 358 kts 163°
2026-04-19 05:45 45.93614 8.58916 17840 ft 347 kts 163°
2026-04-19 05:46 45.91383 8.60115 17622 ft 339 kts 162°
2026-04-19 05:46 45.89279 8.61643 17338 ft 338 kts 150°
2026-04-19 05:46 45.87403 8.63686 16955 ft 340 kts 143°
2026-04-19 05:46 45.85562 8.65823 16526 ft 340 kts 143°
2026-04-19 05:47 45.83739 8.67942 16200 ft 335 kts 143°
2026-04-19 05:47 45.81934 8.70037 15507 ft 333 kts 143°
2026-04-19 05:47 45.80143 8.72113 14933 ft 328 kts 143°
2026-04-19 05:47 45.78379 8.74157 14440 ft 324 kts 143°
2026-04-19 05:48 45.76622 8.76148 13957 ft 321 kts 148°
2026-04-19 05:48 45.74690 8.77756 13494 ft 321 kts 154°
2026-04-19 05:48 45.72734 8.79255 13074 ft 319 kts 154°
2026-04-19 05:48 45.70794 8.80746 12482 ft 313 kts 154°
2026-04-19 05:49 45.68895 8.82210 11983 ft 308 kts 154°
2026-04-19 05:49 45.67012 8.83660 11521 ft 305 kts 153°
2026-04-19 05:49 45.65159 8.85084 11144 ft 295 kts 153°
2026-04-19 05:49 45.63413 8.86427 10878 ft 282 kts 153°
2026-04-19 05:50 45.61653 8.87619 10628 ft 277 kts 164°
2026-04-19 05:50 45.59788 8.88242 10392 ft 274 kts 172°
2026-04-19 05:50 45.57920 8.88746 10151 ft 272 kts 172°
2026-04-19 05:50 45.56065 8.89246 9959 ft 271 kts 172°
2026-04-19 05:51 45.54215 8.89747 9734 ft 270 kts 172°
2026-04-19 05:51 45.52370 8.90246 9423 ft 269 kts 172°
2026-04-19 05:51 45.50536 8.90740 9135 ft 266 kts 172°
2026-04-19 05:51 45.48739 8.91231 9043 ft 258 kts 172°
2026-04-19 05:52 45.47011 8.91703 8811 ft 254 kts 172°
2026-04-19 05:52 45.45290 8.92172 8401 ft 250 kts 172°
2026-04-19 05:52 45.43589 8.92636 7864 ft 248 kts 171°
2026-04-19 05:52 45.41902 8.93094 7342 ft 245 kts 171°
2026-04-19 05:53 45.40237 8.93546 6830 ft 242 kts 171°
2026-04-19 05:53 45.38589 8.93994 6308 ft 239 kts 171°
2026-04-19 05:53 45.36958 8.94385 5774 ft 235 kts 179°
2026-04-19 05:53 45.35404 8.93880 5275 ft 232 kts 212°
2026-04-19 05:54 45.34327 8.92249 5013 ft 226 kts 245°
2026-04-19 05:54 45.33926 8.90119 4748 ft 223 kts 261°
2026-04-19 05:54 45.33693 8.87937 4381 ft 224 kts 259°
2026-04-19 05:54 45.33638 8.85730 4056 ft 224 kts 279°
2026-04-19 05:55 45.34132 8.83641 4009 ft 226 kts 300°
2026-04-19 05:55 45.35113 8.81895 4006 ft 228 kts 320°
2026-04-19 05:55 45.36462 8.80740 4008 ft 227 kts 341°
2026-04-19 05:55 45.37995 8.80224 4009 ft 227 kts 350°
2026-04-19 05:56 45.39549 8.79803 4010 ft 227 kts 349°
2026-04-19 05:56 45.41056 8.79393 4003 ft 213 kts 350°
2026-04-19 05:56 45.42469 8.79041 4041 ft 199 kts 351°
2026-04-19 05:56 45.43796 8.78684 4016 ft 195 kts 348°
2026-04-19 05:57 45.45097 8.78298 3901 ft 187 kts 347°
2026-04-19 05:57 45.46359 8.77942 3701 ft 183 kts 348°
2026-04-19 05:57 45.47621 8.77592 3471 ft 181 kts 349°
2026-04-19 05:57 45.48842 8.77256 3241 ft 180 kts 349°
2026-04-19 05:58 45.50065 8.76920 3002 ft 178 kts 349°
2026-04-19 05:58 45.51277 8.76586 2764 ft 177 kts 350°
2026-04-19 05:58 45.52480 8.76255 2522 ft 175 kts 351°
2026-04-19 05:58 45.53651 8.75933 2294 ft 167 kts 351°
2026-04-19 05:59 45.54757 8.75628 2072 ft 156 kts 351°
2026-04-19 05:59 45.55787 8.75345 1872 ft 148 kts 352°
2026-04-19 05:59 45.56799 8.75076 1661 ft 148 kts 352°
2026-04-19 05:59 45.57816 8.74816 1482 ft 148 kts 351°
2026-04-19 06:00 45.58826 8.74521 1270 ft 148 kts 349°
2026-04-19 06:00 45.59828 8.74231 1107 ft 146 kts 350°
2026-04-19 06:00 45.60836 8.73969 925 ft 149 kts 348°
2026-04-19 06:00 45.61854 8.73671 766 ft 148 kts 349°
2026-04-19 06:01 45.62750 8.73424 742 ft 107 kts 349°
2026-04-19 06:01 45.63322 8.73267 742 ft 67 kts 349°
2026-04-19 06:01 45.63547 8.73199 744 ft 42 kts 345°
2026-04-19 06:01 45.63809 8.72926 750 ft 33 kts 306°
2026-04-19 06:02 45.63891 8.72756 751 ft 31 kts 304°
2026-04-19 06:02 45.63949 8.72523 748 ft 23 kts 259°
2026-04-19 06:02 45.63913 8.72205 749 ft 26 kts 265°
2026-04-19 06:02 45.63898 8.71930 749 ft 24 kts 259°
2026-04-19 06:03 45.63801 8.71828 752 ft 19 kts 175°
2026-04-19 06:03 45.63669 8.71862 750 ft 20 kts 169°
2026-04-19 06:03 45.63577 8.71887 752 ft 21 kts 169°
2026-04-19 06:03 45.63435 8.71925 749 ft 21 kts 169°
2026-04-19 06:04 45.63288 8.71964 752 ft 22 kts 168°
2026-04-19 06:04 45.63134 8.72008 750 ft 20 kts 169°
2026-04-19 06:04 45.63043 8.72027 752 ft 10 kts 185°
2026-04-19 06:04 45.62997 8.71968 752 ft 8 kts 247°
2026-04-19 06:05 45.62985 8.71902 748 ft 6 kts 257°
2026-04-19 06:05 45.62980 8.71871 751 ft 0 kts 258°